Time,TemperatureF,DewpointF,PressureIn,WindDirection,WindDirectionDegrees,WindSpeedMPH,WindSpeedGustMPH,Humidity,HourlyPrecipIn,Conditions,Clouds,dailyrainin,SoftwareType,DateUTC
2013-06-15 00:02:00,64.5,56.0,29.71,NNW,328,0.0,-999.0,74,-99.99,,,0.00,weatherlink.com 1.10,2013-06-15 04:02:00,
2013-06-15 00:17:00,64.1,56.0,29.73,NE,34,0.0,-999.0,75,-99.99,,,0.00,weatherlink.com 1.10,2013-06-15 04:17:00,
2013-06-15 00:32:00,63.5,56.0,29.73,NE,55,0.0,-999.0,77,-99.99,,,0.00,weatherlink.com 1.10,2013-06-15 04:32:00,
2013-06-15 00:47:00,62.9,56.0,29.73,NNE,22,1.0,-999.0,77,-99.99,,,0.00,weatherlink.com 1.10,2013-06-15 04:47:00,
2013-06-15 01:02:00,62.5,56.0,29.73,NNE,22,0.0,-999.0,78,-99.99,,,0.00,weatherlink.com 1.10,2013-06-15 05:02:00,
2013-06-15 01:17:00,62.2,56.0,29.73,NNE,22,0.0,-999.0,79,-99.99,,,0.00,weatherlink.com 1.10,2013-06-15 05:17:00,
2013-06-15 01:32:00,61.6,56.0,29.73,NNE,22,0.0,-999.0,81,-99.99,,,0.00,weatherlink.com 1.10,2013-06-15 05:32:00,
2013-06-15 01:47:00,60.7,56.0,29.73,NNE,22,0.0,-999.0,83,-99.99,,,0.00,weatherlink.com 1.10,2013-06-15 05:47:00,
2013-06-15 02:02:00,59.8,55.0,29.73,NNE,22,0.0,-999.0,85,-99.99,,,0.00,weatherlink.com 1.10,2013-06-15 06:02:00,
2013-06-15 02:17:00,59.1,55.0,29.73,NNE,22,0.0,-999.0,87,-99.99,,,0.00,weatherlink.com 1.10,2013-06-15 06:17:00,
2013-06-15 02:32:00,58.5,55.0,29.74,NNE,22,0.0,-999.0,88,-99.99,,,0.00,weatherlink.com 1.10,2013-06-15 06:32:00,
2013-06-15 02:47:00,58.0,55.0,29.74,NNE,22,0.0,-999.0,89,-99.99,,,0.00,weatherlink.com 1.10,2013-06-15 06:47:00,
2013-06-15 03:02:00,57.5,54.0,29.75,NNE,22,0.0,-999.0,89,-99.99,,,0.00,weatherlink.com 1.10,2013-06-15 07:02:00,
2013-06-15 03:17:00,57.0,55.0,29.75,NNE,22,0.0,-999.0,91,-99.99,,,0.00,weatherlink.com 1.10,2013-06-15 07:17:00,
2013-06-15 03:32:00,56.6,54.0,29.75,NNE,22,0.0,-999.0,91,-99.99,,,0.00,weatherlink.com 1.10,2013-06-15 07:32:00,
2013-06-15 03:47:00,56.5,54.0,29.76,NNE,20,0.0,-999.0,92,-99.99,,,0.00,weatherlink.com 1.10,2013-06-15 07:47:00,
2013-06-15 04:02:00,56.7,54.0,29.76,NNE,20,0.0,-999.0,91,-99.99,,,0.00,weatherlink.com 1.10,2013-06-15 08:02:00,
2013-06-15 04:17:00,57.4,54.0,29.76,NW,316,0.0,-999.0,88,-99.99,,,0.00,weatherlink.com 1.10,2013-06-15 08:17:00,
2013-06-15 04:32:00,57.9,54.0,29.77,NW,314,0.0,-999.0,85,-99.99,,,0.00,weatherlink.com 1.10,2013-06-15 08:32:00,
2013-06-15 04:47:00,58.2,53.0,29.78,WNW,284,0.0,-999.0,83,-99.99,,,0.00,weatherlink.com 1.10,2013-06-15 08:47:00,
2013-06-15 05:02:00,58.3,53.0,29.78,WNW,291,0.0,-999.0,81,-99.99,,,0.00,weatherlink.com 1.10,2013-06-15 09:02:00,
2013-06-15 05:17:00,58.3,52.0,29.79,WNW,292,0.0,-999.0,80,-99.99,,,0.00,weatherlink.com 1.10,2013-06-15 09:17:00,
2013-06-15 05:32:00,58.1,52.0,29.80,WNW,292,0.0,-999.0,80,-99.99,,,0.00,weatherlink.com 1.10,2013-06-15 09:32:00,
2013-06-15 05:47:00,57.9,52.0,29.80,WNW,292,0.0,-999.0,80,-99.99,,,0.00,weatherlink.com 1.10,2013-06-15 09:47:00,
2013-06-15 06:02:00,58.0,51.0,29.81,WNW,292,0.0,-999.0,78,-99.99,,,0.00,weatherlink.com 1.10,2013-06-15 10:02:00,
2013-06-15 06:17:00,58.3,51.0,29.82,WNW,292,0.0,-999.0,77,-99.99,,,0.00,weatherlink.com 1.10,2013-06-15 10:17:00,
2013-06-15 06:32:00,59.0,51.0,29.82,WNW,301,0.0,-999.0,75,-99.99,,,0.00,weatherlink.com 1.10,2013-06-15 10:32:00,
2013-06-15 06:47:00,59.8,51.0,29.82,WNW,303,0.0,-999.0,73,-99.99,,,0.00,weatherlink.com 1.10,2013-06-15 10:47:00,
2013-06-15 07:02:00,60.6,51.0,29.82,NW,326,0.0,-999.0,71,-99.99,,,0.00,weatherlink.com 1.10,2013-06-15 11:02:00,
2013-06-15 07:17:00,61.4,51.0,29.83,WNW,300,0.0,-999.0,68,-99.99,,,0.00,weatherlink.com 1.10,2013-06-15 11:17:00,
2013-06-15 07:32:00,62.2,51.0,29.83,West,269,0.0,-999.0,66,-99.99,,,0.00,weatherlink.com 1.10,2013-06-15 11:32:00,
2013-06-15 07:47:00,62.8,50.0,29.83,North,360,0.0,-999.0,64,-99.99,,,0.00,weatherlink.com 1.10,2013-06-15 11:47:00,
2013-06-15 08:02:00,63.5,51.0,29.84,NW,326,1.0,-999.0,63,-99.99,,,0.00,weatherlink.com 1.10,2013-06-15 12:02:00,
2013-06-15 08:17:00,64.1,50.0,29.84,WNW,299,1.0,-999.0,61,-99.99,,,0.00,weatherlink.com 1.10,2013-06-15 12:17:00,
2013-06-15 08:32:00,64.9,51.0,29.85,WNW,289,0.0,-999.0,60,-99.99,,,0.00,weatherlink.com 1.10,2013-06-15 12:32:00,
2013-06-15 08:47:00,65.8,51.0,29.85,NW,304,1.0,-999.0,59,-99.99,,,0.00,weatherlink.com 1.10,2013-06-15 12:47:00,
2013-06-15 09:02:00,66.6,51.0,29.86,NW,325,3.0,-999.0,57,-99.99,,,0.00,weatherlink.com 1.10,2013-06-15 13:02:00,
2013-06-15 09:17:00,67.5,51.0,29.86,West,269,2.0,-999.0,55,-99.99,,,0.00,weatherlink.com 1.10,2013-06-15 13:17:00,
2013-06-15 09:32:00,68.6,51.0,29.86,WNW,286,0.0,-999.0,53,-99.99,,,0.00,weatherlink.com 1.10,2013-06-15 13:32:00,
2013-06-15 09:47:00,69.7,50.0,29.86,SSW,212,3.0,-999.0,49,-99.99,,,0.00,weatherlink.com 1.10,2013-06-15 13:47:00,
2013-06-15 10:02:00,70.4,47.0,29.86,WSW,240,2.0,-999.0,44,-99.99,,,0.00,weatherlink.com 1.10,2013-06-15 14:02:00,
2013-06-15 10:17:00,71.1,45.0,29.86,WNW,282,0.0,-999.0,40,-99.99,,,0.00,weatherlink.com 1.10,2013-06-15 14:17:00,
2013-06-15 10:32:00,71.5,46.0,29.86,NNW,346,0.0,-999.0,40,-99.99,,,0.00,weatherlink.com 1.10,2013-06-15 14:32:00,
2013-06-15 10:47:00,71.9,46.0,29.86,West,259,2.0,-999.0,40,-99.99,,,0.00,weatherlink.com 1.10,2013-06-15 14:47:00,
2013-06-15 11:02:00,72.3,47.0,29.87,NNE,13,0.0,-999.0,40,-99.99,,,0.00,weatherlink.com 1.10,2013-06-15 15:02:00,
2013-06-15 11:17:00,73.0,46.0,29.86,NNW,336,0.0,-999.0,38,-99.99,,,0.00,weatherlink.com 1.10,2013-06-15 15:17:00,
2013-06-15 11:32:00,73.7,46.0,29.86,WNW,286,1.0,-999.0,38,-99.99,,,0.00,weatherlink.com 1.10,2013-06-15 15:32:00,
2013-06-15 11:48:00,74.9,47.0,29.86,WNW,282,3.0,-999.0,37,-99.99,,,0.00,weatherlink.com 1.10,2013-06-15 15:48:00,
2013-06-15 12:02:00,75.7,48.0,29.86,NW,311,0.0,-999.0,38,-99.99,,,0.00,weatherlink.com 1.10,2013-06-15 16:02:00,
2013-06-15 12:17:00,76.2,46.0,29.86,WNW,301,0.0,-999.0,34,-99.99,,,0.00,weatherlink.com 1.10,2013-06-15 16:17:00,
2013-06-15 12:32:00,76.4,46.0,29.86,West,264,0.0,-999.0,34,-99.99,,,0.00,weatherlink.com 1.10,2013-06-15 16:32:00,
2013-06-15 12:47:00,77.2,47.0,29.85,NW,317,0.0,-999.0,35,-99.99,,,0.00,weatherlink.com 1.10,2013-06-15 16:47:00,
2013-06-15 13:02:00,78.2,47.0,29.85,NNW,328,1.0,-999.0,33,-99.99,,,0.00,weatherlink.com 1.10,2013-06-15 17:02:00,
2013-06-15 13:17:00,78.2,47.0,29.85,NW,308,1.0,-999.0,33,-99.99,,,0.00,weatherlink.com 1.10,2013-06-15 17:17:00,
2013-06-15 13:32:00,79.3,49.0,29.85,SW,227,2.0,-999.0,34,-99.99,,,0.00,weatherlink.com 1.10,2013-06-15 17:32:00,
2013-06-15 13:47:00,79.3,48.0,29.84,NW,320,0.0,-999.0,33,-99.99,,,0.00,weatherlink.com 1.10,2013-06-15 17:47:00,
2013-06-15 14:02:00,79.9,47.0,29.84,SSW,202,3.0,-999.0,32,-99.99,,,0.00,weatherlink.com 1.10,2013-06-15 18:02:00,
2013-06-15 14:17:00,80.4,50.0,29.84,NW,322,0.0,-999.0,34,-99.99,,,0.00,weatherlink.com 1.10,2013-06-15 18:17:00,
2013-06-15 14:32:00,81.2,47.0,29.84,NNE,28,0.0,-999.0,30,-99.99,,,0.00,weatherlink.com 1.10,2013-06-15 18:32:00,
2013-06-15 14:47:00,81.1,48.0,29.84,SW,219,4.0,-999.0,31,-99.99,,,0.00,weatherlink.com 1.10,2013-06-15 18:47:00,
2013-06-15 15:02:00,81.1,48.0,29.83,North,9,1.0,-999.0,31,-99.99,,,0.00,weatherlink.com 1.10,2013-06-15 19:02:00,
2013-06-15 15:17:00,81.4,47.0,29.83,South,177,4.0,-999.0,30,-99.99,,,0.00,weatherlink.com 1.10,2013-06-15 19:17:00,
2013-06-15 15:32:00,81.8,46.0,29.82,WNW,302,2.0,-999.0,28,-99.99,,,0.00,weatherlink.com 1.10,2013-06-15 19:32:00,
2013-06-15 15:47:00,81.8,48.0,29.81,SW,229,2.0,-999.0,31,-99.99,,,0.00,weatherlink.com 1.10,2013-06-15 19:47:00,
2013-06-15 16:02:00,81.0,46.0,29.81,SW,225,3.0,-999.0,29,-99.99,,,0.00,weatherlink.com 1.10,2013-06-15 20:02:00,
2013-06-15 16:17:00,80.9,46.0,29.82,NNW,336,5.0,-999.0,29,-99.99,,,0.00,weatherlink.com 1.10,2013-06-15 20:17:00,
2013-06-15 16:32:00,81.6,45.0,29.81,West,279,0.0,-999.0,28,-99.99,,,0.00,weatherlink.com 1.10,2013-06-15 20:32:00,
2013-06-15 16:47:00,82.3,46.0,29.82,West,264,0.0,-999.0,28,-99.99,,,0.00,weatherlink.com 1.10,2013-06-15 20:47:00,
2013-06-15 17:02:00,82.3,46.0,29.81,WNW,296,0.0,-999.0,28,-99.99,,,0.00,weatherlink.com 1.10,2013-06-15 21:02:00,
2013-06-15 17:17:00,82.3,45.0,29.81,NNW,348,4.0,-999.0,27,-99.99,,,0.00,weatherlink.com 1.10,2013-06-15 21:17:00,
2013-06-15 17:32:00,81.5,44.0,29.81,WNW,289,5.0,-999.0,27,-99.99,,,0.00,weatherlink.com 1.10,2013-06-15 21:32:00,
2013-06-15 17:47:00,81.3,44.0,29.81,ENE,57,0.0,-999.0,27,-99.99,,,0.00,weatherlink.com 1.10,2013-06-15 21:47:00,
2013-06-15 18:02:00,81.2,45.0,29.82,NW,315,0.0,-999.0,28,-99.99,,,0.00,weatherlink.com 1.10,2013-06-15 22:02:00,
2013-06-15 18:17:00,80.7,46.0,29.82,WNW,282,0.0,-999.0,29,-99.99,,,0.00,weatherlink.com 1.10,2013-06-15 22:17:00,
2013-06-15 18:32:00,80.5,46.0,29.82,WNW,287,0.0,-999.0,30,-99.99,,,0.00,weatherlink.com 1.10,2013-06-15 22:32:00,
2013-06-15 18:47:00,80.6,46.0,29.82,West,279,1.0,-999.0,29,-99.99,,,0.00,weatherlink.com 1.10,2013-06-15 22:47:00,
2013-06-15 19:02:00,80.2,46.0,29.82,WNW,302,3.0,-999.0,30,-99.99,,,0.00,weatherlink.com 1.10,2013-06-15 23:02:00,
2013-06-15 19:17:00,79.6,46.0,29.82,WNW,300,0.0,-999.0,31,-99.99,,,0.00,weatherlink.com 1.10,2013-06-15 23:17:00,
2013-06-15 19:32:00,79.1,46.0,29.83,NW,304,0.0,-999.0,31,-99.99,,,0.00,weatherlink.com 1.10,2013-06-15 23:32:00,
2013-06-15 19:47:00,78.1,47.0,29.83,NW,304,0.0,-999.0,34,-99.99,,,0.00,weatherlink.com 1.10,2013-06-15 23:47:00,
2013-06-15 20:02:00,76.3,49.0,29.83,NW,304,0.0,-999.0,39,-99.99,,,0.00,weatherlink.com 1.10,2013-06-16 00:02:00,
2013-06-15 20:17:00,74.4,50.0,29.83,NW,304,0.0,-999.0,42,-99.99,,,0.00,weatherlink.com 1.10,2013-06-16 00:17:00,
2013-06-15 20:32:00,72.5,50.0,29.84,NW,304,0.0,-999.0,45,-99.99,,,0.00,weatherlink.com 1.10,2013-06-16 00:32:00,
2013-06-15 20:47:00,70.5,50.0,29.84,NW,304,0.0,-999.0,48,-99.99,,,0.00,weatherlink.com 1.10,2013-06-16 00:47:00,
2013-06-15 21:02:00,68.8,50.0,29.85,NW,304,0.0,-999.0,51,-99.99,,,0.00,weatherlink.com 1.10,2013-06-16 01:02:00,
2013-06-15 21:17:00,67.4,50.0,29.85,NW,304,0.0,-999.0,54,-99.99,,,0.00,weatherlink.com 1.10,2013-06-16 01:17:00,
2013-06-15 21:32:00,66.5,50.0,29.86,NW,304,0.0,-999.0,55,-99.99,,,0.00,weatherlink.com 1.10,2013-06-16 01:32:00,
2013-06-15 21:47:00,65.7,50.0,29.86,NW,304,0.0,-999.0,58,-99.99,,,0.00,weatherlink.com 1.10,2013-06-16 01:47:00,
2013-06-15 22:02:00,65.0,51.0,29.86,NW,304,0.0,-999.0,60,-99.99,,,0.00,weatherlink.com 1.10,2013-06-16 02:02:00,
2013-06-15 22:17:00,64.4,50.0,29.86,NW,304,0.0,-999.0,61,-99.99,,,0.00,weatherlink.com 1.10,2013-06-16 02:17:00,
2013-06-15 22:32:00,64.0,51.0,29.87,NW,304,0.0,-999.0,62,-99.99,,,0.00,weatherlink.com 1.10,2013-06-16 02:32:00,
2013-06-15 22:47:00,63.6,51.0,29.87,NW,304,0.0,-999.0,63,-99.99,,,0.00,weatherlink.com 1.10,2013-06-16 02:47:00,
2013-06-15 23:02:00,63.3,51.0,29.87,NW,304,0.0,-999.0,65,-99.99,,,0.00,weatherlink.com 1.10,2013-06-16 03:02:00,
2013-06-15 23:17:00,62.8,52.0,29.88,NW,304,0.0,-999.0,67,-99.99,,,0.00,weatherlink.com 1.10,2013-06-16 03:17:00,
2013-06-15 23:32:00,62.4,52.0,29.88,NW,304,0.0,-999.0,68,-99.99,,,0.00,weatherlink.com 1.10,2013-06-16 03:32:00,
2013-06-15 23:47:00,62.0,52.0,29.88,NW,304,0.0,-999.0,69,-99.99,,,0.00,weatherlink.com 1.10,2013-06-16 03:47:00,